Location: Brookview Estates
(36.0476°N, 86.6931°W)
Time: 18:06:03
(UTC+00:00)

Hubble Space Telescope - Pass Details

Date: 16 July 2020
Orbit: 536 x 540 km, 28.5° (Epoch: 08 August)

Event Time Altitude Azimuth Distance (km) Brightness Sun altitude
Rises 02:58:18 0° 258° (WSW) 2,669 4.8 -19.3°
Reaches altitude 10° 03:01:11 10° 237° (WSW) 1,778 3.5 -19.7°
Enters shadow 03:02:55 16° 213° (SSW) 1,453 2.8 -20.0°
